カタログに戻る

THORAD DELTA 1 DEB

運用中LEO
NORAD 8439·DEBRIS·🇺🇸 United States

打ち上げ Nov 15, 1974 から Vandenberg Space Force Base

Loading…

次のパス (今後24時間)

TLE

最新Source: Space-Track

元期: Sep 14, 2026, 10:18 UTC

1 08439U 74089CQ  26257.42967449  .00000924  00000-0  31763-2 0  9996
2 08439 102.3226  72.4350 0074321 170.7573 189.4910 13.00712415428268

AllMySatでTHORAD DELTA 1 DEBをリアルタイム追跡

Download on the App Store